Content
SEND FEEDBACK

Daily
Averages
Monthly
Summary
United States of America

EL PASO, TEXAS


Home > North America > United States > Texas
Elevation: 3918 feet     Latitude: 31 48N     Longitude: 106 24W

WEATHER
 
SELECT A DAY
Number of Records: 175,375;   Date Range: 1/1/95 - 11/24/14
 
SHARE

PRINT THIS DATA

[ ← Previous Day ]
WEATHER ALMANAC - JUNE 24, 2013
[ Next Day → ]
[ °C ]   °F
We're sorry. There is no daily almanac available for El Paso, Texas on June 24, 2013.
WEATHER BY HOUR - JUNE 24, 2013
[ °C ]   °F
Local TimeTemperatureDewpointHumidityBarometerVisibilityWind DirectionWind SpeedGust SpeedPrecipitationEventsConditions
1:51 AM89.1 °F33.1 °F14 %29.64 in10.0 miWSW (250°)12.7 mphMostly Cloudy
2:51 AM86.0 °F32.0 °F14 %29.65 in10.0 miWSW (240°)8.1 mphMostly Cloudy
3:51 AM84.0 °F32.0 °F15 %29.66 in10.0 miSouth (190°)3.5 mphScattered Clouds
4:51 AM79.0 °F33.1 °F19 %29.68 in10.0 miSSE (150°)6.9 mphScattered Clouds
5:51 AM80.1 °F33.1 °F18 %29.70 in10.0 miSouth (180°)5.8 mphMostly Cloudy
6:51 AM82.9 °F34.0 °F17 %29.72 in10.0 miWest (280°)6.9 mphMostly Cloudy
7:51 AM82.9 °F33.1 °F17 %29.74 in10.0 miNNE (20°)3.5 mphScattered Clouds
8:51 AM87.1 °F34.0 °F15 %29.75 in10.0 miCalmScattered Clouds
9:51 AM91.9 °F35.1 °F13 %29.76 in10.0 miWest (280°)11.5 mphScattered Clouds
10:51 AM91.9 °F36.0 °F14 %29.75 in10.0 miWNW (290°)12.7 mph20.7 mphScattered Clouds
11:51 AM93.9 °F36.0 °F13 %29.74 in10.0 miWSW (240°)9.2 mphMostly Cloudy
12:51 PM95.0 °F36.0 °F13 %29.72 in10.0 miWest (280°)9.2 mph19.6 mphMostly Cloudy
1:51 PM93.9 °F35.1 °F13 %29.71 in10.0 miWest (280°)11.5 mph20.7 mphMostly Cloudy
2:51 PM97.0 °F37.0 °F12 %29.69 in10.0 miWest (270°)8.1 mphMostly Cloudy
3:51 PM98.1 °F36.0 °F11 %29.66 in10.0 miNW (320°)11.5 mph21.9 mphScattered Clouds
4:51 PM99.0 °F39.9 °F13 %29.64 in10.0 miWest (280°)13.8 mph24.2 mphScattered Clouds
5:51 PM98.1 °F42.1 °F15 %29.62 in10.0 miWNW (290°)12.7 mph21.9 mphPartly Cloudy
6:51 PM97.0 °F41.0 °F14 %29.62 in10.0 miWSW (240°)9.2 mph18.4 mphPartly Cloudy
7:51 PM95.0 °F41.0 °F15 %29.63 in10.0 miSSW (200°)6.9 mphScattered Clouds
8:08 PM95.0 °F42.8 °F16 %29.88 in10.0 miSouth (180°)8.1 mphThunderstormThunderstorm
8:34 PM91.4 °F48.2 °F23 %29.90 in10.0 miSW (220°)26.5 mph31.1 mph0.00 inRainLight Rain
8:51 PM91.0 °F46.0 °F21 %29.65 in10.0 miSSE (160°)13.8 mph24.2 mph0.00 inScattered Clouds
9:51 PM91.9 °F43.0 °F18 %29.65 in10.0 miSW (230°)15.0 mph23.0 mphScattered Clouds
10:51 PM91.0 °F45.0 °F20 %29.68 in10.0 miWSW (250°)11.5 mphScattered Clouds
11:51 PM90.0 °F46.0 °F22 %29.68 in10.0 miWSW (250°)12.7 mphPartly Cloudy
Hourly data recorded from KELP, located miles away from El Paso, Texas







STORIES FROM OUR PARTNERS